Other Public Products
Issued by NWS Grand Forks, ND

Home | Current Version | Previous Version | Text Only | Print | Product List | Glossary Off
Versions: 1 2 3 4 5 6 7 8 9 10 11 12 13 14 15 16 17 18 19 20 21 22 23 24 25 26 27 28 29 30 31 32 33 34 35 36 37 38 39 40 41 42 43 44 45 46 47 48 49 50

000
FPUS83 KFGF 240210
OPUFGF
PRAIRIE TO PINES WEATHER ROUNDUP
NATIONAL WEATHER SERVICE EASTERN NORTH DAKOTA/GRAND FORKS ND
900 PM CDT WED APR 23 2014

 **SATELLITE DATA USED TO AUGMENT SKY COVER AT AUTOMATED STATIONS**
 *****  WEATHER ACROSS EASTERN NORTH DAKOTA  *****

CITY           SKY/WX    TMP DP  RH WIND       PRES   REMARKS
GRAND FORKS    LGT RAIN  41  38  89 SE22G32   29.84S
GRAND FORKS AF LGT RAIN  41  39  93 SE21G30   29.83R
GRAND CITY NWS   N/A     39 N/A N/A E26         N/A
BUXTON         NOT AVBL
DEVILS LAKE    CLOUDY    37  32  81 SE22      29.73S
FARGO          LGT RAIN  41  38  89 SE16      29.83R
WAHPETON ARPT  CLOUDY    41  36  81 SE24      29.80R
$$

 *****  WEATHER ACROSS CENTRAL AND WESTERN NORTH DAKOTA  *****

CITY           SKY/WX    TMP DP  RH WIND       PRES   REMARKS
JAMESTOWN      CLOUDY    40  38  93 SE21G28   29.70S
BISMARCK       CLOUDY    50  32  50 NW8       29.68R
MINOT          CLOUDY    46  44  93 S3        29.62R
MINOT AFB      CLOUDY    44  44 100 SE5       29.62R
GARRISON         N/A     43  40  89 W6        29.64R
WILLISTON      MOCLDY    51  38  60 CALM      29.60R
DICKINSON      CLOUDY    50  27  40 NW10      29.64R
HETTINGER      MOCLDY    50  30  46 W12       29.70R
$$

 *****  OTHER OBSERVATIONS NORTHEAST NORTH DAKOTA  *****

CITY           SKY/WX    TMP DP  RH WIND       PRES   REMARKS
WALHALLA       MIX PCPN  39  39 100 SE25G32   29.84S
LANGDON        MIX PCPN  37  36  93 SE24G35   29.77S
CAVALIER       MIX PCPN  41  39  93 SE18G25   29.85F
GRAFTON        MIX PCPN  39  39 100 SE26      29.86R
CANDO          MIX PCPN  37  37 100 SE23G30   29.74R
FORT TOTTEN    NOT AVBL
ROLLA          CLOUDY    37  37 100 SE24G30   29.72S
RUGBY          CLOUDY    39  39 100 SE16G24   29.69R FOG
 ***** THE ABOVE OBSERVATIONS ARE NON NWS ARE NOT QUALITY
        CONTROLLED AND MAY MIS-REPORT RAIN FOR SNOW...
$$

 *****  OTHER OBSERVATIONS SOUTHEAST NORTH DAKOTA *****

CITY           SKY/WX    TMP DP  RH WIND       PRES   REMARKS
COOPERSTOWN    MIX PCPN  39  39 100 SE24G32   29.75S
VALLEY CITY    CLOUDY    39  39 100 SE18G28   29.75S FOG
OAKES          CLOUDY    39  39 100 E13       29.71S
GWINNER        CLOUDY    41  41 100 SE25G31   29.74R
BUFFALO        NOT AVBL
WYNDMERE       NOT AVBL
 ***** THE ABOVE OBSERVATIONS ARE NON NWS ARE NOT QUALITY
       CONTROLLED AND MAY MIS-REPORT RAIN FOR SNOW...
$$

  *****  WEATHER ACROSS NORTHERN MINNESOTA  *****

CITY           SKY/WX    TMP DP  RH WIND       PRES   REMARKS
FLAG ISLAND    CLOUDY    48  23  37 SE9       29.90R
WARROAD        CLOUDY    46  34  61 S17G24    29.93R
ROSEAU         RAIN      45  37  76 SE14G21   29.93R
HALLOCK        RAIN      43  39  87 SE17G23   29.89R
THF RVR FALLS  CLOUDY    39  34  81 SE20G29   29.89F
HALSTAD          N/A     39  37  94 SE17        N/A
FOSSTON        RAIN      36  34  93 SE14      29.90S
BAUDETTE       CLOUDY    49  27  42 S10       29.93R
WASKISH        LGT RAIN  39  36  87 SE10      29.96R
CROOKSTON      MIX PCPN  39  37  93 SE21G29   29.88R
$$
  *****  WEATHER ACROSS CENTRAL AND WEST MINNESOTA  *****

CITY           SKY/WX    TMP DP  RH WIND       PRES   REMARKS
BEMIDJI        LGT SNOW  33  32  98 E9        29.93R WCI  25
PARK RAPIDS    LGT RAIN  34  33  96 E10       29.91R
WADENA         CLOUDY    37  36  93 SE21      29.87S
DETROIT LAKES  LGT RAIN  36  36 100 SE16G24   29.85F
MOORHEAD       RAIN      41  41 100 SE16G25   29.82R
FERGUS FALLS   LGT RAIN  41  36  81 SE23G29   29.79S
ELBOW LAKE     CLOUDY    40  36  84 SE21G33   29.81F
MORRIS MN      LGT RAIN  41  36  81 SE25G32   29.79F
STAPLES        CLOUDY    37  36  93 SE12      29.91S
WHEATON        DRIZZLE   43  39  87 SE25G31   29.79F
$$
  *****  WEATHER ELSEWHERE ACROSS MINNESOTA  *****

CITY           SKY/WX    TMP DP  RH WIND       PRES   REMARKS
DULUTH         LGT RAIN  39  27  62 E9        30.01R
INTRNTL FALLS  CLOUDY    49  22  34 SE8       29.95R
ELY            CLOUDY    43  19  39 E8        30.01R
CLOQUET        LGT RAIN  39  28  65 E12G18    29.98F
BRAINERD       CLOUDY    42  35  76 SE9       29.96R
HIBBING        CLOUDY    45  24  43 SE8       29.99R
ALEXANDRIA     CLOUDY    40  35  83 E18G29    29.86R
SAINT CLOUD    CLOUDY    41  37  86 E9        29.92R
MINNEAPOLIS    CLOUDY    42  39  89 E17       29.92F
$$

  *****  WEATHER ACROSS SOUTH DAKOTA  *****

CITY           SKY/WX    TMP DP  RH WIND       PRES   REMARKS
SIOUX FALLS    MOCLDY    50  40  68 SE18G29   29.68R
BROOKINGS      NOT AVBL
WATERTOWN      MOCLDY    46  38  73 SE18G30   29.68R
HURON          PTCLDY    60  42  51 SE14G29   29.57R
SISSETON         N/A     41  38  89 SE20G26   29.75R
ABERDEEN       CLOUDY    44  40  85 E9        29.66R
MITCHELL       MOCLDY    59  44  57 SE18      29.57S
PIERRE         CLOUDY    56  37  49 N21G29    29.63R
MOBRIDGE       MOCLDY    50  38  63 N12       29.64R
RAPID CITY     CLOUDY    50  33  52 N16       29.73R
$$

  *****  SOME WEATHER IN NEARBY STATES *****

CITY           SKY/WX    TMP DP  RH WIND       PRES   REMARKS
GLASGOW MT     CLEAR     54  19  25 W16       29.59R
GREAT FALLS MT MOCLDY    43  27  53 SW25      29.73R
CHEYENNE WY    CLOUDY    47   8  20 NW25G38   29.82R
SCOTTSBLUFF NE CLOUDY    57  10  15 NW16G24   29.76R
OMAHA NE       CLOUDY    56  43  61 E8        29.67R
DES MOINES IA  LGT RAIN  50  39  66 SE17G28   29.78F
DAVENPORT IA   CLOUDY    48  39  71 SE13      29.98F
CHICAGO IL     CLOUDY    42  20  41 E8        30.09F
EAU CLAIRE WI  LGT RAIN  42  39  89 E7        30.00R
LA CROSSE WI   CLOUDY    44  39  82 E9        29.99S
$$

  *****  SOME NATIONAL WEATHER *****

CITY           SKY/WX    TMP DP  RH WIND       PRES   REMARKS
LA GUARDIA NY  CLOUDY    46  29  51 NW25G33   29.80R
RALEIGH NC     CLEAR     56  35  45 CALM      29.94R
ATLANTA GA     CLEAR     64  36  35 NW8       29.94R
NEW ORLEANS LA PTCLDY    72  65  78 S10       29.92R
OKLAHOMA CITY  LGT RAIN  76  57  51 SE21G28   29.72R
ALBUQUERQUE NM CLOUDY    63  17  17 NW21G31   29.85R
SALT LAKE CITY PTCLDY    50  18  27 CALM      30.05S
LOS ANGELES CA PTCLDY    64  49  57 W14       29.91F
BOISE ID       CLOUDY    55  29  36 E5        29.95S
SEATTLE WA     LGT RAIN  50  46  86 E9        29.78F
$$

*** WEATHER ACROSS MANITOBA...SASKATCHEWAN AND ONTARIO ***
                ***ONTARIO***

CITY           SKY/WX    TMP DP  RH WIND       PRES   REMARKS
GERALDTON      PTCLDY    36  25  64 CALM      30.07S
THUNDER BAY    CLOUDY    39  27  60 NE5       30.08R
SIOUX LOOKOUT  MOCLDY    48  21  34 E3        29.99S
TORONTO        CLEAR     41  21  45 W12       30.06R
BIG TROUT LK   MOCLDY    39  19  45 E7        30.08S
PICKLE LAKE    PTCLDY    43  23  45 E7        30.03R
DRYDEN           N/A     46  19  34 E6        29.97S
KENORA         CLOUDY    48  23  37 SE7       29.94S
$$
                *** MANITOBA***

CITY           SKY/WX    TMP DP  RH WIND       PRES   REMARKS
BRANDON        LGT RAIN  39  37  93 SE25G35   29.77R
DAUPHIN        LGT RAIN  41  39  93 SE21G31   29.80F
ISLAND LAKE    PTCLDY    43  32  65 NE8       30.05R
PILOT MOUND      N/A     37  36  93 SE25G32     N/A
THE PAS        CLOUDY    45  30  57 E16G24    29.90R
THOMPSON       PTCLDY    32  23  69 NE15      30.17R WCI  22
WINNIPEG       LGT RAIN  43  41  93 S14G21    29.91R
LYNN LAKE      CLEAR     30  21  69 E16G22    30.13S WCI  19
CHURCHILL      FLURRIES  21  16  79 NE13      30.38S WCI   9
GILLAM         CLOUDY    25  19  80 NE18      30.28R WCI  11
$$
                ***SASKATCHEWAN***

CITY           SKY/WX    TMP DP  RH WIND       PRES   REMARKS
ESTEVAN        LGT RAIN  43  43 100 W6        29.57R
KINDERSLEY     MOCLDY    43  36  75 W17G24    29.50R
LLOYDMINSTER   LGT RAIN  39  37  93 E15G21    29.49R FOG
PRINCE ALBERT  LGT RAIN  41  39  93 E29G37    29.65R
REGINA         LGT RAIN  43  43 100 SW5       29.52R
YORKTON        LGT RAIN  39  37  93 E23G33    29.66S



USA.gov is the U.S. government's official web portal to all federal, state and local government web resources and services.